TimeCST,TemperatureF,Dew PointF,Humidity,Sea Level PressureIn,VisibilityMPH,Wind Direction,Wind SpeedMPH,Gust SpeedMPH,PrecipitationIn,Events,Conditions,WindDirDegrees,DateUTC
12:19 AM,17.6,10.4,73,29.78,10.0,WNW,10.4,-,N/A,,Clear,290,2014-02-22 06:19:00
12:39 AM,17.6,10.4,73,29.79,10.0,WNW,9.2,17.3,N/A,,Clear,290,2014-02-22 06:39:00
12:58 AM,17.6,10.4,73,29.80,10.0,WNW,10.4,16.1,N/A,,Clear,290,2014-02-22 06:58:00
1:19 AM,17.6,10.4,73,29.81,10.0,WNW,15.0,-,N/A,,Clear,300,2014-02-22 07:19:00
1:39 AM,17.6,10.4,73,29.82,10.0,WNW,9.2,17.3,N/A,,Clear,290,2014-02-22 07:39:00
1:58 AM,15.8,8.6,73,29.84,10.0,WNW,10.4,17.3,N/A,,Clear,290,2014-02-22 07:58:00
2:19 AM,15.8,8.6,73,29.83,10.0,WNW,18.4,25.3,N/A,,Clear,300,2014-02-22 08:19:00
2:39 AM,15.8,8.6,73,29.84,10.0,WNW,15.0,25.3,N/A,,Clear,300,2014-02-22 08:39:00
2:58 AM,14.0,8.6,79,29.84,10.0,WNW,15.0,25.3,N/A,,Clear,300,2014-02-22 08:58:00
3:19 AM,14.0,8.6,79,29.84,10.0,WNW,13.8,18.4,N/A,,Clear,290,2014-02-22 09:19:00
3:39 AM,14.0,8.6,79,29.85,10.0,WNW,11.5,20.7,N/A,,Clear,300,2014-02-22 09:39:00
3:58 AM,14.0,8.6,79,29.85,10.0,WNW,10.4,18.4,N/A,,Clear,290,2014-02-22 09:58:00
4:19 AM,14.0,8.6,79,29.87,10.0,WNW,10.4,-,N/A,,Clear,300,2014-02-22 10:19:00
4:39 AM,14.0,8.6,79,29.88,10.0,WNW,9.2,18.4,N/A,,Clear,300,2014-02-22 10:39:00
4:58 AM,14.0,8.6,79,29.88,10.0,WNW,13.8,-,N/A,,Clear,300,2014-02-22 10:58:00
5:19 AM,12.2,5.0,73,29.90,10.0,WNW,9.2,-,N/A,,Clear,290,2014-02-22 11:19:00
5:39 AM,12.2,5.0,73,29.91,10.0,WNW,9.2,-,N/A,,Clear,290,2014-02-22 11:39:00
5:58 AM,12.2,5.0,73,29.92,10.0,WNW,10.4,18.4,N/A,,Clear,290,2014-02-22 11:58:00
6:19 AM,12.2,5.0,73,29.93,10.0,West,11.5,18.4,N/A,,Clear,280,2014-02-22 12:19:00
6:39 AM,12.2,5.0,73,29.93,10.0,WNW,11.5,18.4,N/A,,Clear,290,2014-02-22 12:39:00
6:58 AM,12.2,5.0,73,29.93,10.0,West,8.1,-,N/A,,Clear,280,2014-02-22 12:58:00
7:19 AM,12.2,5.0,73,29.94,10.0,West,8.1,-,N/A,,Clear,280,2014-02-22 13:19:00
7:39 AM,12.2,5.0,73,29.96,10.0,WNW,10.4,16.1,N/A,,Clear,300,2014-02-22 13:39:00
7:58 AM,12.2,5.0,73,29.97,10.0,WNW,10.4,20.7,N/A,,Clear,290,2014-02-22 13:58:00
8:19 AM,12.2,3.2,67,29.99,10.0,West,9.2,16.1,N/A,,Clear,280,2014-02-22 14:19:00
8:39 AM,14.0,5.0,67,29.99,10.0,West,9.2,18.4,N/A,,Clear,280,2014-02-22 14:39:00
8:58 AM,14.0,5.0,67,29.96,10.0,NW,10.4,-,N/A,,Clear,310,2014-02-22 14:58:00
9:19 AM,14.0,5.0,67,29.97,10.0,NW,12.7,-,N/A,,Clear,320,2014-02-22 15:19:00
9:39 AM,14.0,5.0,67,29.99,10.0,WNW,8.1,-,N/A,,Clear,300,2014-02-22 15:39:00
9:58 AM,15.8,5.0,62,29.99,10.0,WNW,12.7,16.1,N/A,,Clear,290,2014-02-22 15:58:00
10:19 AM,17.6,6.8,63,29.99,10.0,WNW,11.5,17.3,N/A,,Clear,290,2014-02-22 16:19:00
10:38 AM,17.6,6.8,63,30.00,10.0,WNW,10.4,-,N/A,,Clear,290,2014-02-22 16:38:00
10:59 AM,17.6,5.0,58,30.00,10.0,WNW,13.8,21.9,N/A,,Clear,290,2014-02-22 16:59:00
11:19 AM,17.6,6.8,63,30.01,10.0,West,10.4,-,N/A,,Clear,280,2014-02-22 17:19:00
11:38 AM,19.4,6.8,58,30.00,10.0,WNW,12.7,17.3,N/A,,Clear,300,2014-02-22 17:38:00
11:59 AM,19.4,8.6,63,30.00,10.0,West,10.4,-,N/A,,Clear,280,2014-02-22 17:59:00
12:19 PM,19.4,8.6,63,30.00,10.0,West,12.7,18.4,N/A,,Clear,280,2014-02-22 18:19:00
12:38 PM,19.4,8.6,63,29.99,10.0,West,12.7,-,N/A,,Clear,280,2014-02-22 18:38:00
12:59 PM,19.4,8.6,63,29.99,10.0,WNW,10.4,17.3,N/A,,Clear,290,2014-02-22 18:59:00
1:19 PM,19.4,8.6,63,29.99,10.0,WNW,8.1,-,N/A,,Clear,290,2014-02-22 19:19:00
1:38 PM,19.4,8.6,63,29.99,10.0,WNW,12.7,17.3,N/A,,Clear,300,2014-02-22 19:38:00
1:59 PM,19.4,8.6,63,29.99,10.0,WNW,12.7,19.6,N/A,,Clear,290,2014-02-22 19:59:00
2:19 PM,19.4,8.6,63,30.00,10.0,WNW,13.8,20.7,N/A,,Clear,300,2014-02-22 20:19:00
2:39 PM,19.4,8.6,63,30.00,10.0,West,12.7,-,N/A,,Clear,280,2014-02-22 20:39:00
2:59 PM,19.4,8.6,63,30.01,10.0,WNW,9.2,-,N/A,,Clear,290,2014-02-22 20:59:00
3:19 PM,19.4,8.6,63,30.01,10.0,West,8.1,-,N/A,,Clear,280,2014-02-22 21:19:00
3:39 PM,19.4,8.6,63,30.01,10.0,West,12.7,19.6,N/A,,Clear,280,2014-02-22 21:39:00
3:59 PM,19.4,8.6,63,30.02,10.0,WNW,10.4,-,N/A,,Clear,300,2014-02-22 21:59:00
4:19 PM,19.4,8.6,63,30.02,10.0,WNW,9.2,-,N/A,,Clear,290,2014-02-22 22:19:00
4:39 PM,19.4,8.6,63,30.02,10.0,WNW,11.5,16.1,N/A,,Clear,300,2014-02-22 22:39:00
4:59 PM,17.6,8.6,68,30.02,10.0,WNW,10.4,17.3,N/A,,Clear,290,2014-02-22 22:59:00
5:19 PM,17.6,6.8,63,30.03,10.0,WNW,9.2,16.1,N/A,,Clear,290,2014-02-22 23:19:00
5:38 PM,17.6,8.6,68,30.04,10.0,WNW,11.5,17.3,N/A,,Clear,300,2014-02-22 23:38:00
5:59 PM,15.8,6.8,68,30.05,10.0,WNW,8.1,-,N/A,,Clear,300,2014-02-22 23:59:00
6:19 PM,14.0,6.8,73,30.06,10.0,WNW,4.6,-,N/A,,Clear,300,2014-02-23 00:19:00
6:39 PM,14.0,5.0,67,30.06,10.0,WNW,5.8,-,N/A,,Clear,290,2014-02-23 00:39:00
6:59 PM,14.0,6.8,73,30.07,10.0,WNW,8.1,-,N/A,,Clear,300,2014-02-23 00:59:00
7:19 PM,14.0,6.8,73,30.08,10.0,WNW,6.9,-,N/A,,Clear,300,2014-02-23 01:19:00
7:38 PM,14.0,6.8,73,30.08,10.0,West,6.9,-,N/A,,Clear,280,2014-02-23 01:38:00
7:59 PM,14.0,6.8,73,30.09,10.0,WNW,5.8,-,N/A,,Clear,290,2014-02-23 01:59:00
8:19 PM,14.0,6.8,73,30.09,10.0,West,6.9,-,N/A,,Clear,280,2014-02-23 02:19:00
8:38 PM,14.0,6.8,73,30.10,10.0,West,11.5,17.3,N/A,,Clear,280,2014-02-23 02:38:00
8:59 PM,14.0,6.8,73,30.10,10.0,WNW,8.1,18.4,N/A,,Clear,290,2014-02-23 02:59:00
9:19 PM,14.0,6.8,73,30.10,10.0,WNW,11.5,19.6,N/A,,Clear,300,2014-02-23 03:19:00
9:38 PM,12.2,5.0,73,30.11,10.0,NW,6.9,-,N/A,,Clear,320,2014-02-23 03:38:00
9:59 PM,12.2,5.0,73,30.11,10.0,NW,8.1,-,N/A,,Clear,310,2014-02-23 03:59:00
10:19 PM,12.2,5.0,73,30.11,10.0,NW,8.1,-,N/A,,Clear,310,2014-02-23 04:19:00
10:38 PM,12.2,5.0,73,30.12,10.0,WNW,6.9,-,N/A,,Clear,300,2014-02-23 04:38:00
10:59 PM,12.2,5.0,73,30.13,10.0,WNW,9.2,19.6,N/A,,Clear,300,2014-02-23 04:59:00
11:18 PM,14.0,5.0,67,30.14,10.0,WNW,11.5,23.0,N/A,,Clear,290,2014-02-23 05:18:00
11:39 PM,12.2,5.0,73,30.14,10.0,WNW,10.4,16.1,N/A,,Clear,290,2014-02-23 05:39:00
11:59 PM,12.2,3.2,67,30.14,10.0,NW,10.4,-,N/A,,Clear,310,2014-02-23 05:59:00